Sacramento, CA

12:35 AM PDT on May 01, 2017 (GMT -0700)
Sacramento Executive

Weather History for KSAC - November, 2013

Change the Weather History Date:

Thursday, November 28, 2013

  Actual Average Record
Temperature  
Mean Temperature 57 °F -  
Max Temperature 70 °F 59 °F 70 °F (2013)
Min Temperature 44 °F 40 °F 27 °F (2015)
Degree Days  
Heating Degree Days 8    
Cooling Degree Days 0    
Growing Degree Days 6 (Base 50)    
Moisture  
Dew Point 41 °F    
Average Humidity 63    
Maximum Humidity 92    
Minimum Humidity 33    
Precipitation  
Precipitation 0.00 in 0.09 in 2.42 in (1970)
Month to date precipitation 0.88 1.90  
Year to date precipitation 5.38 15.09  
Since 1 July precipitation 1.47  
Sea Level Pressure  
Sea Level Pressure 29.96 in    
Wind  
Wind Speed 2 mph (NNW)    
Max Wind Speed 9 mph    
Max Gust Speed 10 mph    
Visibility 10 miles    
Events      
T = Trace of Precipitation, MM = Missing Value Source: NWS Daily Summary

Daily Weather History Graph

Daily Weather History Graph

Search for Another Location

Airport or City:

Trip Planner

Search our weather history database for the weather conditions in past years. The results will help you decide how hot, cold, wet, or windy it might be!

Date:

Astronomy

Nov. 28, 2013 Rise Set
Actual Time 7:01 AM PST 4:46 PM PST
Civil Twilight 6:32 AM PST 5:15 PM PST
Nautical Twilight 6:00 AM PST 5:47 PM PST
Astronomical Twilight 5:28 AM PST 6:19 PM PST
Moon 2:13 AM PST (11/28) 1:55 PM PST (11/28)
Length of Visible Light 10h 42m
Length of Day
9h 44m
Waning Crescent, 21% of the Moon is Illuminated
Nov 28
Waning Crescent
Dec 2
New
Dec 9
First Quarter
Dec 17
Full
Dec 25
Last Quarter

Hourly Weather History & Observations

Time (PST) Temp. Windchill Dew Point Humidity Pressure Visibility Wind Dir Wind Speed Gust Speed Precip Events Conditions
12:53 AM 46.9 °F - 41.0 °F 80% 29.89 in 10.0 mi Calm Calm - N/A   Clear
1:53 AM 46.9 °F - 41.0 °F 80% 29.89 in 10.0 mi North 3.5 mph - N/A   Clear
2:53 AM 45.0 °F - 41.0 °F 86% 29.90 in 10.0 mi Calm Calm - N/A   Clear
3:53 AM 45.0 °F - 41.0 °F 86% 29.90 in 10.0 mi Calm Calm - N/A   Clear
4:53 AM 44.1 °F - 41.0 °F 89% 29.91 in 10.0 mi Calm Calm - N/A   Clear
5:53 AM 45.0 °F 42.6 °F 42.1 °F 90% 29.91 in 10.0 mi NNW 4.6 mph - N/A   Clear
6:53 AM 44.1 °F 42.5 °F 39.9 °F 85% 29.93 in 10.0 mi WNW 3.5 mph - N/A   Clear
7:53 AM 45.0 °F 43.5 °F 41.0 °F 86% 29.94 in 10.0 mi North 3.5 mph - N/A   Clear
8:53 AM 48.0 °F - 42.1 °F 80% 29.95 in 10.0 mi NNW 3.5 mph - N/A   Clear
9:53 AM 55.0 °F - 42.1 °F 62% 29.96 in 10.0 mi North 3.5 mph - N/A   Clear
10:53 AM 60.1 °F - 41.0 °F 49% 29.97 in 10.0 mi Variable 3.5 mph - N/A   Clear
11:53 AM 64.0 °F - 41.0 °F 43% 29.95 in 10.0 mi NW 4.6 mph - N/A   Clear
12:53 PM 66.9 °F - 39.0 °F 36% 29.94 in 10.0 mi NNW 3.5 mph - N/A   Clear
1:53 PM 69.1 °F - 39.9 °F 35% 29.94 in 10.0 mi Calm Calm - N/A   Clear
2:53 PM 69.1 °F - 39.0 °F 33% 29.95 in 10.0 mi Calm Calm - N/A   Clear
3:53 PM 68.0 °F - 41.0 °F 37% 29.96 in 10.0 mi SE 3.5 mph - N/A   Clear
4:53 PM 63.0 °F - 42.1 °F 46% 29.96 in 10.0 mi Calm Calm - 0.00 in   Clear
5:53 PM 54.0 °F - 42.1 °F 64% 29.99 in 10.0 mi Calm Calm - N/A   Clear
6:53 PM 52.0 °F - 43.0 °F 71% 30.00 in 10.0 mi Calm Calm - N/A   Clear
7:53 PM 50.0 °F - 43.0 °F 77% 30.02 in 10.0 mi Calm Calm - N/A   Clear
8:53 PM 48.0 °F - 43.0 °F 83% 30.04 in 10.0 mi Calm Calm - N/A   Clear
9:53 PM 48.9 °F - 42.1 °F 77% 30.05 in 10.0 mi Calm Calm - N/A   Clear
10:53 PM 48.9 °F - 42.1 °F 77% 30.06 in 9.0 mi East 3.5 mph - N/A   Clear
11:53 PM 50.0 °F - 41.0 °F 71% 30.07 in 10.0 mi SE 4.6 mph - N/A   Clear